• In Hungary
  • List of Countries
  • For 7 days
  • Water Temperature
  • Satellite Maps
  • Weather Map
  • News
  • Weather Widgets
  • user-avatar
    Login

    Hourly Weather Bernaty

    Today, 17 October, Wednesday

    Time Temperature Precipitation Wind Pressure Humidity
    00:00 +9°C° 0 mm 2 mps 755 mmHg 89%
    01:00 +10°C° 0 mm 1 mps 755 mmHg 89%
    02:00 +10°C° 0 mm 1 mps 755 mmHg 90%
    03:00 +10°C° 0 mm 1 mps 755 mmHg 90%
    04:00 +9°C° 0 mm 1 mps 755 mmHg 90%
    05:00 +9°C° 0 mm 1 mps 755 mmHg 91%
    06:00 +9°C° 0 mm 1 mps 755 mmHg 90%
    07:00 +8°C° 0 mm 2 mps 755 mmHg 89%
    08:00 +9°C° 0 mm 2 mps 755 mmHg 88%
    09:00 +12°C° 0 mm 2 mps 755 mmHg 80%
    10:00 +13°C° 0 mm 2 mps 755 mmHg 73%
    11:00 +15°C° 0 mm 2 mps 755 mmHg 66%
    12:00 +16°C° 0 mm 2 mps 755 mmHg 63%
    13:00 +17°C° 0 mm 2 mps 755 mmHg 61%
    14:00 +18°C° 0 mm 2 mps 755 mmHg 58%
    15:00 +16°C° 0 mm 2 mps 755 mmHg 64%
    16:00 +15°C° 0 mm 2 mps 754 mmHg 70%
    17:00 +14°C° 0 mm 1 mps 754 mmHg 76%
    18:00 +13°C° 0 mm 2 mps 754 mmHg 80%
    19:00 +12°C° 0 mm 2 mps 754 mmHg 83%
    20:00 +10°C° 0 mm 2 mps 754 mmHg 86%
    21:00 +10°C° 0 mm 2 mps 754 mmHg 87%
    22:00 +10°C° 0 mm 2 mps 754 mmHg 89%
    23:00 +9°C° 0 mm 2 mps 754 mmHg 90%

    Tomorrow, 18 October, Thursday

    Time Temperature Precipitation Wind Pressure Humidity
    00:00 +9°C° 0 mm 2 mps 754 mmHg 90%
    01:00 +9°C° 0 mm 2 mps 754 mmHg 90%
    02:00 +9°C° 0 mm 1 mps 754 mmHg 91%
    03:00 +9°C° 0 mm 1 mps 754 mmHg 90%
    04:00 +9°C° 0 mm 1 mps 754 mmHg 90%
    05:00 +9°C° 0 mm 1 mps 754 mmHg 90%
    06:00 +9°C° 0 mm 1 mps 753 mmHg 89%
    07:00 +9°C° 0 mm 1 mps 753 mmHg 88%
    08:00 +10°C° 0 mm 1 mps 753 mmHg 86%
    09:00 +12°C° 0 mm 2 mps 753 mmHg 80%
    10:00 +13°C° 0 mm 2 mps 753 mmHg 73%
    11:00 +15°C° 0 mm 2 mps 753 mmHg 67%
    12:00 +16°C° 0 mm 2 mps 752 mmHg 66%
    13:00 +17°C° 0 mm 2 mps 752 mmHg 65%
    14:00 +18°C° 0 mm 3 mps 751 mmHg 64%
    15:00 +17°C° 0 mm 2 mps 751 mmHg 71%
    16:00 +16°C° 0 mm 2 mps 751 mmHg 78%
    17:00 +15°C° 0 mm 2 mps 750 mmHg 85%
    18:00 +14°C° 0 mm 2 mps 750 mmHg 87%
    19:00 +13°C° 0 mm 2 mps 750 mmHg 90%
    20:00 +12°C° 0 mm 2 mps 750 mmHg 92%
    21:00 +12°C° 0 mm 2 mps 750 mmHg 93%
    22:00 +12°C° 0 mm 2 mps 750 mmHg 93%
    23:00 +10°C° 0 mm 2 mps 750 mmHg 94%

    Day after tomorrow, 19 October, Friday

    Time Temperature Precipitation Wind Pressure Humidity
    00:00 +10°C° 0 mm 2 mps 750 mmHg 94%
    01:00 +10°C° 0 mm 2 mps 750 mmHg 93%
    02:00 +10°C° 0 mm 1 mps 750 mmHg 93%
    03:00 +10°C° 0 mm 1 mps 750 mmHg 94%
    04:00 +10°C° 0 mm 1 mps 750 mmHg 94%
    05:00 +9°C° 0 mm 1 mps 750 mmHg 94%
    06:00 +9°C° 0 mm 1 mps 751 mmHg 94%
    07:00 +9°C° 0 mm 2 mps 751 mmHg 93%
    08:00 +9°C° 0 mm 2 mps 751 mmHg 93%
    09:00 +10°C° 0 mm 2 mps 752 mmHg 89%
    10:00 +10°C° 0 mm 2 mps 752 mmHg 86%
    11:00 +11°C° 0 mm 3 mps 752 mmHg 82%
    12:00 +11°C° 0 mm 3 mps 752 mmHg 79%
    13:00 +11°C° 0 mm 3 mps 752 mmHg 77%
    14:00 +11°C° 0 mm 3 mps 752 mmHg 75%
    15:00 +10°C° 0 mm 2 mps 753 mmHg 75%
    16:00 +10°C° 0 mm 2 mps 753 mmHg 75%
    17:00 +9°C° 0 mm 2 mps 753 mmHg 76%
    18:00 +8°C° 0 mm 2 mps 753 mmHg 78%
    19:00 +7°C° 0 mm 2 mps 754 mmHg 81%
    20:00 +6°C° 0 mm 2 mps 754 mmHg 83%
    21:00 +6°C° 0 mm 2 mps 754 mmHg 84%
    22:00 +5°C° 0 mm 2 mps 754 mmHg 85%
    23:00 +6°C° 0 mm 1 mps 755 mmHg 86%

    20 October, Saturday

    Time Temperature Precipitation Wind Pressure Humidity
    00:00 +5°C° 0 mm 1 mps 755 mmHg 88%
    01:00 +5°C° 0 mm 1 mps 755 mmHg 89%
    02:00 +5°C° 0 mm 1 mps 755 mmHg 91%
    03:00 +5°C° 0 mm 1 mps 755 mmHg 92%
    04:00 +4°C° 0 mm 1 mps 755 mmHg 93%
    05:00 +4°C° 0 mm 1 mps 755 mmHg 94%
    06:00 +4°C° 0 mm 1 mps 755 mmHg 93%
    07:00 +4°C° 0 mm 1 mps 756 mmHg 92%
    08:00 +4°C° 0 mm 1 mps 756 mmHg 92%
    09:00 +6°C° 0 mm 1 mps 756 mmHg 84%
    10:00 +8°C° 0 mm 1 mps 756 mmHg 77%
    11:00 +9°C° 0 mm 1 mps 756 mmHg 69%
    12:00 +10°C° 0 mm 1 mps 756 mmHg 66%
    13:00 +10°C° 0 mm 1 mps 756 mmHg 62%
    14:00 +11°C° 0 mm 1 mps 756 mmHg 58%
    15:00 +9°C° 0 mm 1 mps 755 mmHg 63%
    16:00 +8°C° 0 mm 1 mps 755 mmHg 68%
    17:00 +7°C° 0 mm 1 mps 755 mmHg 73%
    18:00 +7°C° 0 mm 1 mps 755 mmHg 75%
    19:00 +6°C° 0 mm 1 mps 755 mmHg 77%
    20:00 +6°C° 0 mm 1 mps 755 mmHg 79%
    21:00 +6°C° 0 mm 1 mps 755 mmHg 80%
    22:00 +5°C° 0 mm 1 mps 755 mmHg 81%
    23:00 +4°C° 0 mm 0 mps 755 mmHg 81%

    21 October, Sunday

    Time Temperature Precipitation Wind Pressure Humidity
    00:00 +4°C° 0 mm 0 mps 755 mmHg 83%
    01:00 +5°C° 0 mm 1 mps 755 mmHg 84%
    02:00 +4°C° 0 mm 1 mps 755 mmHg 85%
    03:00 +3°C° 0 mm 0 mps 755 mmHg 86%
    04:00 +3°C° 0 mm 0 mps 756 mmHg 88%
    05:00 +2°C° 0 mm 0 mps 756 mmHg 89%
    06:00 +3°C° 0 mm 0 mps 756 mmHg 88%
    07:00 +3°C° 0 mm 0 mps 756 mmHg 87%
    08:00 +3°C° 0 mm 0 mps 756 mmHg 85%
    09:00 +5°C° 0 mm 0 mps 756 mmHg 78%
    10:00 +7°C° 0 mm 0 mps 756 mmHg 71%
    11:00 +8°C° 0 mm 0 mps 757 mmHg 63%
    12:00 +10°C° 0 mm 1 mps 756 mmHg 61%
    13:00 +10°C° 0 mm 1 mps 756 mmHg 59%
    14:00 +11°C° 0 mm 1 mps 756 mmHg 56%
    15:00 +10°C° 0 mm 1 mps 756 mmHg 62%
    16:00 +9°C° 0 mm 1 mps 756 mmHg 67%
    17:00 +7°C° 0 mm 1 mps 756 mmHg 73%
    18:00 +7°C° 0 mm 1 mps 756 mmHg 75%
    19:00 +6°C° 0 mm 1 mps 756 mmHg 78%
    20:00 +5°C° 0 mm 2 mps 756 mmHg 80%
    21:00 +4°C° 0 mm 2 mps 756 mmHg 82%
    22:00 +4°C° 0 mm 2 mps 756 mmHg 83%
    23:00 +4°C° 0 mm 2 mps 756 mmHg 85%

    22 October, Monday

    Time Temperature Precipitation Wind Pressure Humidity
    00:00 +4°C° 0 mm 2 mps 755 mmHg 86%
    01:00 +3°C° 0 mm 3 mps 755 mmHg 87%
    02:00 +3°C° 0 mm 3 mps 755 mmHg 88%
    03:00 +3°C° 0 mm 3 mps 755 mmHg 90%
    04:00 +2°C° 0 mm 3 mps 754 mmHg 91%
    05:00 +2°C° 0 mm 3 mps 754 mmHg 92%
    06:00 +3°C° 0 mm 3 mps 753 mmHg 92%
    07:00 +3°C° 0 mm 4 mps 753 mmHg 91%
    08:00 +3°C° 0 mm 4 mps 753 mmHg 91%
    09:00 +5°C° 0 mm 4 mps 753 mmHg 85%
    10:00 +7°C° 0 mm 5 mps 752 mmHg 79%
    11:00 +8°C° 0 mm 5 mps 752 mmHg 73%
    12:00 +9°C° 0 mm 5 mps 752 mmHg 72%
    13:00 +10°C° 0 mm 6 mps 751 mmHg 71%
    14:00 +10°C° 0 mm 6 mps 751 mmHg 70%
    15:00 +9°C° 0.1 mm 5 mps 751 mmHg 75%
    16:00 +9°C° 0.1 mm 5 mps 751 mmHg 79%
    17:00 +8°C° 0.1 mm 4 mps 751 mmHg 84%
    18:00 +7°C° 0 mm 4 mps 751 mmHg 86%
    19:00 +7°C° 0 mm 3 mps 751 mmHg 87%
    20:00 +5°C° 0 mm 3 mps 752 mmHg 88%
    21:00 +6°C° 0 mm 2 mps 752 mmHg 88%
    22:00 +5°C° 0 mm 2 mps 752 mmHg 87%
    23:00 +4°C° 0 mm 2 mps 752 mmHg 86%
    Show more